カタログに戻る

DELTA 1 DEB

運用中SSO
NORAD 7018·DEBRIS·🇺🇸 United States

打ち上げ Nov 6, 1973 から Vandenberg Space Force Base

Loading…

次のパス (今後24時間)

TLE

最新Source: Space-Track

元期: Sep 14, 2026, 12:43 UTC

1 07018U 73086J   26257.52999845 -.00000030  00000-0  12619-3 0  9999
2 07018 102.3177 279.3248 0011579 281.6613 232.8533 12.39213247389509

AllMySatでDELTA 1 DEBをリアルタイム追跡

Download on the App Store